Tracking 35237 objects as of 5-Sep-2026
HD Live streaming from Space Station
objects crossing your sky now

GHGSAT-C6

Track GHGSAT-C6 now!
10-day predictions


NORAD ID: 56204
Int'l Code: 2023-054AC
Launch date: April 15, 2023
Source: Canada (CA)
Launch site: AIR FORCE WESTERN TEST RANGE (AFWTR)
Your satellite tracking list
Your tracking list is empty




NASA's NSSDC Master Catalog

Two Line Element Set (TLE):
1 56204U 23054AC  26248.54979057  .00011674  00000-0  17439-3 0  9995
2 56204  97.2960 159.9840 0008118  99.5966 260.6206 15.55156379190931
Source of the keplerian elements: AFSPC